sat.trackr.live / text

‹ back to catalog

STARLINK-6146

NORAD 57124 · 2023-090Z

PAYLOAD ACTIVE UNKNOWN

§ Identity

Operator
Country
US
Launch date
2023-06-23
Launch site
AFETR
Launch vehicle
Mass (kg)
RCS (m²)

Purposes: comms

External: N2YO · Heavens-Above · Gunter

§ Orbital elements

Epoch: 2026-05-25T04:36:12.813408Z

Period
94.32 min
Inclination
43.0028°
Eccentricity
0.0001479
Mean motion
15.26739422 rev/d
Perigee alt
484.6 km
Apogee alt
486.6 km
Semi-major
6,863.7 km
B*
3.2183e-5
RAAN
209.3989°
Arg perigee
274.5689°
Mean anomaly
85.4994°
Rev number
16,203

§ Raw data

STARLINK-61461 57124U 23090Z   26145.19181497  .00000603  00000+0  32183-4 0  99902 57124  43.0028 209.3989 0001479 274.5689  85.4994 15.26739422162032

JSON: /api/v1/satellites/57124 · /tle

For live sub-satellite position, see the globe view (requires WebGL).

§ Visibility from observer

Set your observer location to see the next 7 days of passes ≥ 10°. The values pass through the URL so the page stays shareable.

No JS? Fill the form by hand. The geolocation button needs JavaScript.